CW1923 Weather Reports


time (UTC)temp
F
wind
direction
speed
knots
gust
knots
rain 1hr
in
rain 24hr
in
rain mn
in
humidity
%
barometer
mb
20260504100223 60 199 0.0 0.0 0.00 0.17 0.00 95 1013.7
20260504090142 59 199 0.0 3.5 0.00 0.19 0.00 97 1013.7
20260504081624 58 185 0.0 0.0 0.00 0.24 0.00 98 1013.4
20260504081105 58 185 0.0 0.0 0.00 0.24 0.00 98 1013.3
20260504080608 58 182 0.0 0.0 0.00 0.24 0.00 98 1013.4
20260504080113 58 181 0.0 0.0 0.00 0.24 0.00 98 1013.4
20260504070117 57 177 0.0 0.0 0.00 0.24 0.00 98 1013.0
20260504050503 56 175 0.0 0.0 0.00 0.24 0.00 98 1012.2
20260504050005 56 179 0.0 0.0 0.00 0.24 0.00 98 1012.1
20260504045504 56 179 0.0 0.0 0.00 0.24 0.00 98 1012.2
20260504045001 56 179 0.0 0.0 0.00 0.24 0.00 98 1012.1
20260504044458 55 179 0.0 0.0 0.00 0.24 0.00 98 1012.1
20260504043957 55 179 0.0 0.0 0.00 0.24 0.00 98 1012.1
20260504043453 55 179 0.0 0.0 0.00 0.24 0.00 98 1012.1
20260504042944 55 179 0.0 0.0 0.00 0.24 0.00 98 1012.2
20260504042441 55 179 0.0 0.0 0.00 0.24 0.00 98 1012.2
20260504041929 55 179 0.0 0.0 0.00 0.24 0.00 98 1012.1
20260504041429 55 179 0.0 0.0 0.00 0.24 0.00 97 1012.1
20260504040933 55 179 0.0 0.0 0.00 0.24 0.00 98 1012.1
20260504040430 55 179 0.0 0.0 0.00 0.24 0.00 98 1012.1
20260504035932 55 179 0.0 0.0 0.00 0.24 0.00 98 1012.1
20260504035429 55 179 0.0 0.0 0.00 0.24 0.00 98 1012.2
20260504034930 55 179 0.0 0.0 0.00 0.24 0.00 98 1012.3
20260504034430 55 179 0.0 0.0 0.00 0.24 0.00 98 1012.3
20260504033931 55 179 0.0 0.0 0.00 0.24 0.00 98 1012.3
20260504032924 55 179 0.0 0.0 0.00 0.24 0.00 98 1012.2
20260504032416 55 179 0.0 0.0 0.00 0.24 0.00 98 1012.3
20260504031910 55 179 0.0 0.0 0.00 0.24 0.00 98 1012.4
20260504031409 55 179 0.0 0.0 0.00 0.24 0.00 98 1012.3
20260504030905 55 179 0.0 0.0 0.00 0.24 0.00 98 1012.3
20260504030355 55 179 0.0 0.0 0.00 0.24 0.00 98 1012.2
20260504025342 55 179 0.0 0.0 0.00 0.24 0.00 97 1012.3
20260504024838 55 179 0.0 0.0 0.00 0.24 0.00 97 1012.1
20260504023830 55 179 0.0 0.0 0.00 0.24 0.00 97 1012.2
20260504022838 55 179 0.0 0.0 0.00 0.24 0.00 97 1012.0
20260504021833 55 179 0.0 0.0 0.00 0.24 0.00 97 1012.2
20260504021321 55 179 0.0 0.0 0.00 0.24 0.00 97 1012.1
20260504020828 55 179 0.0 0.0 0.00 0.24 0.00 97 1012.1
20260504020309 55 179 0.0 0.0 0.00 0.24 0.00 97 1012.1
20260504015807 55 179 0.0 0.0 0.00 0.24 0.00 97 1012.1
20260504014808 55 179 0.0 0.0 0.00 0.24 0.00 97 1011.9
20260504014302 55 179 0.0 0.0 0.00 0.24 0.00 97 1011.8
20260504013809 55 179 0.0 0.0 0.00 0.24 0.00 97 1011.8
20260504013305 55 179 0.0 0.0 0.00 0.24 0.00 97 1011.8
20260504012804 56 179 0.0 0.0 0.00 0.24 0.00 97 1011.7
20260504012308 56 179 0.0 0.0 0.00 0.24 0.00 97 1011.7
20260504011805 56 179 0.0 0.0 0.00 0.24 0.00 97 1011.6
20260504010759 56 179 0.0 0.0 0.00 0.24 0.00 97 1011.6
20260504010252 56 179 0.0 0.0 0.00 0.24 0.00 97 1011.6
20260504005742 56 179 0.0 0.0 0.00 0.24 0.00 97 1011.7
20260504005236 56 179 0.0 0.0 0.00 0.24 0.00 97 1011.7
20260504004732 56 179 0.0 0.0 0.00 0.24 0.00 97 1011.7
20260504003736 56 179 0.0 0.0 0.00 0.24 0.00 97 1011.6
20260504003231 56 179 0.0 0.0 0.00 0.24 0.00 97 1011.5
20260504002733 56 179 0.0 0.0 0.00 0.24 0.00 97 1011.5
20260504001720 56 179 0.0 0.0 0.00 0.24 0.00 97 1011.5
20260504000705 56 179 0.0 0.0 0.00 0.24 0.00 97 1011.6
20260504000207 56 179 0.0 0.0 0.00 0.24 0.00 97 1011.7
20260503235704 56 179 0.0 0.0 0.00 0.24 0.00 97 1011.6
20260503235206 56 179 0.0 0.0 0.00 0.24 0.00 97 1011.6
20260503234650 56 179 0.0 0.0 0.00 0.24 0.00 97 1011.7
20260503234144 56 179 0.0 0.0 0.00 0.24 0.00 97 1011.6
20260503233635 56 179 0.0 0.0 0.00 0.24 0.00 97 1011.5
20260503233134 56 179 0.0 0.0 0.00 0.24 0.00 97 1011.5
20260503232633 56 179 0.0 0.0 0.00 0.24 0.00 97 1011.6
20260503232132 56 179 0.0 0.0 0.00 0.24 0.00 97 1011.7
20260503231629 56 179 0.0 0.0 0.00 0.24 0.00 97 1011.9
20260503231131 56 179 0.0 0.0 0.00 0.24 0.00 97 1011.8
20260503230627 56 179 0.0 0.0 0.00 0.24 0.00 97 1011.8
20260503225608 56 179 0.0 0.0 0.00 0.24 0.00 97 1011.9
20260503225106 56 179 0.0 0.0 0.00 0.24 0.00 96 1011.8
20260503224604 56 179 0.0 0.0 0.00 0.24 0.00 96 1011.7
20260503223608 56 179 0.0 0.0 0.00 0.24 0.00 96 1011.8
20260503223108 56 179 0.0 0.0 0.00 0.24 0.00 96 1011.9
20260503222604 56 179 0.0 0.0 0.00 0.24 0.00 96 1011.8
20260503222102 56 179 0.0 0.0 0.00 0.24 0.00 96 1011.9
20260503221050 56 179 0.0 0.0 0.00 0.24 0.00 96 1012.0
20260503220544 56 179 0.0 0.0 0.00 0.24 0.00 96 1011.9
20260503220041 56 179 0.0 0.0 0.00 0.24 0.00 96 1012.0
20260503215537 56 179 0.0 0.0 0.00 0.24 0.24 96 1011.9
20260503214537 56 179 0.0 0.0 0.00 0.24 0.24 96 1012.0
20260503214032 56 179 0.0 0.0 0.00 0.24 0.24 96 1012.2
20260503213531 56 179 0.0 0.0 0.00 0.24 0.24 96 1012.1
20260503213034 56 179 0.0 0.0 0.00 0.24 0.24 96 1012.1
20260503212530 56 179 0.0 0.0 0.00 0.24 0.24 96 1012.1
20260503212032 56 179 0.0 0.0 0.00 0.24 0.24 96 1012.0
20260503211531 56 179 0.0 0.0 0.00 0.24 0.24 96 1012.1
20260503211034 57 179 0.0 0.0 0.00 0.24 0.24 96 1012.1
20260503210031 57 179 0.0 0.0 0.00 0.24 0.24 96 1011.9
20260503205534 57 178 0.0 0.0 0.00 0.24 0.24 96 1011.9
20260503205037 57 178 0.0 0.0 0.00 0.24 0.24 96 1011.8
20260503204536 57 178 0.0 0.0 0.00 0.24 0.24 96 1011.9
20260503204033 57 178 0.0 0.0 0.00 0.24 0.24 96 1011.8
20260503203535 57 178 0.0 0.0 0.00 0.24 0.24 96 1011.9
20260503203032 57 178 0.0 0.0 0.00 0.24 0.24 96 1011.9
20260503202531 57 178 0.0 0.0 0.00 0.29 0.24 96 1011.9
20260503202017 57 178 0.0 0.0 0.00 0.33 0.24 95 1011.8
20260503201516 57 178 0.0 0.0 0.00 0.34 0.24 96 1011.8
20260503201007 57 178 0.0 0.0 0.00 0.34 0.24 96 1011.9
20260503200508 57 178 0.0 0.0 0.00 0.34 0.24 96 1011.9
20260503200004 58 178 0.0 0.0 0.00 0.34 0.24 95 1011.8
20260503194503 58 178 0.0 0.0 0.00 0.35 0.24 95 1011.7
20260503192950 58 178 0.0 0.0 0.00 0.35 0.24 95 1011.6
20260503191943 59 178 0.0 0.0 0.00 0.35 0.24 95 1011.5
20260503191445 59 178 0.0 1.7 0.00 0.35 0.24 95 1011.5
20260503190937 59 178 0.0 1.7 0.00 0.35 0.24 95 1011.4
20260503190436 59 183 1.7 4.3 0.01 0.35 0.24 95 1011.4
20260503185932 59 183 1.7 4.3 0.01 0.35 0.24 95 1011.3
20260503185434 59 184 1.7 4.3 0.02 0.35 0.24 95 1011.3
20260503184936 59 185 3.5 6.1 0.02 0.35 0.24 95 1011.3
20260503184435 59 185 1.7 6.1 0.02 0.35 0.24 95 1011.3
20260503183935 60 214 1.7 6.1 0.02 0.35 0.24 95 1011.1
20260503182932 60 254 1.7 6.1 0.02 0.35 0.24 95 1011.3
20260503182432 60 223 1.7 6.1 0.02 0.35 0.24 95 1011.3
20260503181931 60 189 1.7 7.8 0.03 0.35 0.24 94 1011.3
20260503180934 60 197 1.7 6.1 0.06 0.35 0.24 94 1011.3
20260503180432 60 199 3.5 6.1 0.06 0.35 0.23 94 1011.3
20260503175933 60 186 1.7 6.1 0.06 0.35 0.23 94 1011.2
20260503175436 60 194 1.7 6.1 0.06 0.34 0.22 94 1011.2
20260503174916 60 194 1.7 6.1 0.08 0.34 0.22 93 1011.3
20260503174416 60 195 1.7 6.1 0.08 0.34 0.22 93 1011.2
20260503173915 60 195 3.5 6.1 0.08 0.34 0.22 93 1011.3
20260503173417 60 197 3.5 9.6 0.08 0.34 0.22 93 1011.3
20260503172915 60 202 3.5 9.6 0.07 0.33 0.21 92 1011.3
20260503172415 60 178 3.5 9.6 0.07 0.33 0.21 92 1011.3
20260503171913 61 223 1.7 7.8 0.06 0.32 0.20 91 1011.3
20260503171410 61 326 1.7 6.1 0.06 0.31 0.19 91 1011.3
20260503170911 61 349 1.7 6.1 0.04 0.30 0.18 90 1011.3
20260503170410 61 300 3.5 7.8 0.03 0.29 0.17 90 1011.4
20260503150844 63 190 4.3 12.2 0.00 0.26 0.14 87 1010.9
20260503150341 63 180 4.3 13.9 0.00 0.26 0.14 88 1010.8
20260503131335 62 176 3.5 10.4 0.00 0.26 0.14 95 1011.4
20260503130834 62 168 3.5 10.4 0.00 0.26 0.14 95 1011.4
20260503110331 60 191 3.5 7.8 0.04 0.23 0.11 95 1011.7